Weather History for Carmi, IL

Change the Weather History Date:

Monday, March 24, 2014

  Actual Average (KEVV) Record (KEVV)
Temperature  
Mean Temperature 34 °F 49 °F  
Max Temperature 44 °F 60 °F 87 °F (1929)
Min Temperature 24 °F 38 °F 7 °F (1974)
Degree Days  
Heating Degree Days 31 16  
Month to date heating degree days 484  
Since 1 July heating degree days 4058  
Cooling Degree Days 0 0  
Month to date cooling degree days 0  
Year to date cooling degree days 0  
Moisture  
Dew Point 22 °F    
Average Humidity 65    
Maximum Humidity 86    
Minimum Humidity 34    
Precipitation  
Precipitation 0.00 in 0.15 in 1.48 in (1978)
Month to date precipitation 3.21  
Year to date precipitation 9.48  
Snow  
Snow 0.00 in 0.00 in 3.60 in (1990)
Month to date snowfall 0.9  
Since 1 July snowfall 11.6  
Snow Depth -    
Sea Level Pressure  
Sea Level Pressure 30.28 in    
Wind  
Wind Speed 5 mph (North)    
Max Wind Speed 16 mph    
Max Gust Speed 23 mph    
Visibility 10 miles    
Events      
T = Trace of Precipitation, MM = Missing Value Source: NWS Daily Summary

Daily Weather History Graph

Daily Weather History Graph

Search for Another Location

Airport:

Trip Planner

Search our weather history database for the weather conditions in past years. The results will help you decide how hot, cold, wet, or windy it might be!

Date:

Astronomy

Mar. 24, 2014 Rise Set
Actual Time 6:49 AM CDT 7:08 PM CDT
Civil Twilight 6:23 AM CDT 7:34 PM CDT
Nautical Twilight 5:52 AM CDT 8:05 PM CDT
Astronomical Twilight 5:21 AM CDT 8:37 PM CDT
Moon 2:14 AM CDT (3/24) 12:38 PM CDT (3/24)
Length of Visible Light 13h 11m
Length of Day
12h 18m
Last Quarter, 43% of the Moon is Illuminated
Mar 24
Last Quarter
Mar 30
New
Apr 7
First Quarter
Apr 15
Full
Apr 22
Last Quarter

Hourly Weather History & Observations

Time (CDT) Temp. Windchill Dew Point Humidity Pressure Visibility Wind Dir Wind Speed Gust Speed Precip Events Conditions
12:15 AM 29.5 °F 23.4 °F 21.6 °F 72% 30.38 in 10.0 mi North 5.8 mph - N/A   Clear
12:35 AM 29.3 °F 23.2 °F 21.6 °F 73% 30.37 in 10.0 mi North 5.8 mph - N/A   Clear
12:55 AM 29.1 °F 24.1 °F 21.6 °F 73% 30.37 in 10.0 mi North 4.6 mph - N/A   Clear
1:15 AM 29.3 °F 25.6 °F 20.8 °F 71% 30.37 in 10.0 mi North 3.5 mph - N/A   Clear
1:35 AM 28.4 °F - 21.7 °F 76% 30.37 in 10.0 mi Calm Calm - N/A   Clear
1:55 AM 25.9 °F - 22.3 °F 86% 30.37 in 10.0 mi Calm Calm - N/A   Clear
2:15 AM 28.0 °F 22.8 °F 20.8 °F 74% 30.37 in 10.0 mi North 4.6 mph - N/A   Clear
2:35 AM 26.1 °F 20.5 °F 21.0 °F 81% 30.37 in 10.0 mi North 4.6 mph - N/A   Clear
2:55 AM 26.6 °F 21.2 °F 21.6 °F 81% 30.37 in 10.0 mi North 4.6 mph - N/A   Clear
3:15 AM 27.0 °F 21.6 °F 21.4 °F 79% 30.36 in 10.0 mi North 4.6 mph - N/A   Clear
3:35 AM 27.5 °F 20.2 °F 21.6 °F 78% 30.36 in 10.0 mi North 6.9 mph - N/A   Clear
3:55 AM 25.9 °F 19.2 °F 21.6 °F 84% 30.35 in 10.0 mi North 5.8 mph - N/A   Clear
4:15 AM 26.2 °F 19.6 °F 21.4 °F 82% 30.35 in 10.0 mi North 5.8 mph - N/A   Clear
4:35 AM 26.6 °F 20.0 °F 21.2 °F 80% 30.35 in 10.0 mi North 5.8 mph - N/A   Clear
4:55 AM 25.7 °F 19.0 °F 21.2 °F 83% 30.35 in 10.0 mi North 5.8 mph - N/A   Clear
5:15 AM 26.2 °F 18.6 °F 21.7 °F 83% 30.35 in 10.0 mi North 6.9 mph - N/A   Clear
5:35 AM 25.7 °F 19.0 °F 21.2 °F 83% 30.34 in 10.0 mi North 5.8 mph - N/A   Clear
5:55 AM 25.2 °F 19.5 °F 20.7 °F 83% 30.34 in 10.0 mi North 4.6 mph - N/A   Clear
6:15 AM 25.2 °F 19.5 °F 21.0 °F 84% 30.34 in 10.0 mi North 4.6 mph - N/A   Clear
6:35 AM 24.8 °F 17.9 °F 20.8 °F 85% 30.35 in 10.0 mi North 5.8 mph - N/A   Clear
6:55 AM 25.2 °F 20.9 °F 20.8 °F 84% 30.35 in 10.0 mi North 3.5 mph - N/A   Clear
7:15 AM 24.6 °F 18.8 °F 20.8 °F 86% 30.37 in 10.0 mi NNW 4.6 mph - N/A   Clear
7:35 AM 26.4 °F 22.4 °F 22.5 °F 85% 30.37 in 10.0 mi North 3.5 mph - N/A   Clear
7:55 AM 28.0 °F 24.2 °F 21.9 °F 78% 30.37 in 10.0 mi North 3.5 mph - N/A   Clear
8:15 AM 28.9 °F 23.9 °F 23.0 °F 78% 30.38 in 10.0 mi North 4.6 mph - N/A   Clear
8:35 AM 30.7 °F 27.3 °F 23.9 °F 76% 30.37 in 10.0 mi ENE 3.5 mph - N/A   Clear
8:55 AM 32.2 °F 27.7 °F 23.7 °F 71% 30.37 in 10.0 mi NE 4.6 mph - N/A   Clear
9:15 AM 33.8 °F 27.0 °F 22.5 °F 63% 30.37 in 10.0 mi ENE 8.1 mph - N/A   Clear
9:35 AM 34.7 °F 29.6 °F 21.2 °F 58% 30.38 in 10.0 mi ENE 5.8 mph - N/A   Clear
9:55 AM 35.4 °F 28.4 °F 19.8 °F 53% 30.37 in 10.0 mi NE 9.2 mph - N/A   Clear
10:15 AM 36.0 °F 30.3 °F 18.9 °F 50% 30.36 in 10.0 mi ENE 6.9 mph - N/A   Clear
10:35 AM 36.7 °F 31.2 °F 18.5 °F 48% 30.35 in 10.0 mi ENE 6.9 mph - N/A   Clear
10:55 AM 37.0 °F 30.4 °F 19.4 °F 49% 30.33 in 10.0 mi ENE 9.2 mph - N/A   Clear
11:15 AM 38.3 °F 34.8 °F 18.7 °F 45% 30.33 in 10.0 mi NE 4.6 mph - N/A   Clear
11:35 AM 39.2 °F 34.2 °F 17.8 °F 42% 30.33 in 10.0 mi North 6.9 mph - N/A   Clear
11:55 AM 39.9 °F 37.8 °F 17.1 °F 40% 30.32 in 10.0 mi NNE 3.5 mph - N/A   Clear
12:15 PM 41.2 °F 36.0 °F 18.7 °F 40% 30.31 in 10.0 mi NE 8.1 mph - N/A   Clear
12:35 PM 40.8 °F 37.8 °F 16.5 °F 37% 30.30 in 10.0 mi ENE 4.6 mph - N/A   Clear
12:55 PM 41.2 °F 37.3 °F 18.0 °F 39% 30.29 in 10.0 mi East 5.8 mph - N/A   Clear
1:15 PM 40.5 °F 38.4 °F 16.7 °F 38% 30.28 in 10.0 mi North 3.5 mph - N/A   Clear
1:35 PM 41.2 °F - 16.3 °F 37% 30.27 in 10.0 mi Calm Calm - N/A   Clear
1:55 PM 42.8 °F 40.1 °F 17.6 °F 36% 30.26 in 10.0 mi East 4.6 mph - N/A   Scattered Clouds
2:15 PM 44.1 °F - 18.0 °F 35% 30.24 in 7.0 mi Calm Calm - N/A   Mostly Cloudy
2:35 PM 43.9 °F 41.3 °F 17.4 °F 35% 30.23 in 10.0 mi East 4.6 mph - N/A   Scattered Clouds
2:55 PM 42.4 °F - 16.2 °F 35% 30.23 in 10.0 mi Calm Calm - N/A   Scattered Clouds
3:15 PM 42.8 °F - 16.3 °F 34% 30.22 in 10.0 mi Calm Calm - N/A   Clear
3:35 PM 43.0 °F - 16.5 °F 34% 30.21 in 10.0 mi Calm Calm - N/A   Clear
3:55 PM 43.9 °F 42.3 °F 17.4 °F 35% 30.20 in 10.0 mi NNW 3.5 mph - N/A   Clear
4:15 PM 43.2 °F 41.5 °F 17.1 °F 35% 30.19 in 10.0 mi NNW 3.5 mph - N/A   Scattered Clouds
4:35 PM 43.5 °F 38.3 °F 17.8 °F 36% 30.18 in 10.0 mi NNW 9.2 mph - N/A   Scattered Clouds
4:55 PM 43.0 °F 41.3 °F 18.3 °F 37% 30.18 in 10.0 mi North 3.5 mph - N/A   Scattered Clouds
5:15 PM 43.3 °F 39.2 °F 18.9 °F 38% 30.17 in 10.0 mi North 6.9 mph - N/A   Scattered Clouds
5:35 PM 43.2 °F 37.4 °F 18.7 °F 38% 30.18 in 10.0 mi NNW 10.4 mph - N/A   Scattered Clouds
5:55 PM 40.8 °F 32.6 °F 24.6 °F 53% 30.18 in 10.0 mi North 16.1 mph 23.0 mph N/A   Mostly Cloudy
6:15 PM 39.2 °F 30.5 °F 25.7 °F 58% 30.18 in 10.0 mi NNW 16.1 mph 20.7 mph N/A   Overcast
6:35 PM 37.9 °F 30.5 °F 27.1 °F 65% 30.19 in 10.0 mi NNW 11.5 mph - N/A   Mostly Cloudy
6:55 PM 37.4 °F 29.3 °F 28.0 °F 69% 30.18 in 10.0 mi North 12.7 mph - N/A   Mostly Cloudy
7:15 PM 36.5 °F 28.7 °F 29.1 °F 75% 30.19 in 10.0 mi North 11.5 mph - N/A   Mostly Cloudy
7:35 PM 36.5 °F 29.2 °F 28.9 °F 74% 30.18 in 10.0 mi North 10.4 mph - N/A   Mostly Cloudy
7:55 PM 36.0 °F 28.5 °F 29.3 °F 77% 30.18 in 10.0 mi North 10.4 mph - N/A   Overcast
8:15 PM 35.6 °F 28.0 °F 28.9 °F 77% 30.18 in 10.0 mi North 10.4 mph - N/A   Mostly Cloudy
8:35 PM 35.4 °F 29.0 °F 29.3 °F 78% 30.19 in 10.0 mi North 8.1 mph - N/A   Scattered Clouds
8:55 PM 34.9 °F 30.8 °F 29.5 °F 81% 30.19 in 10.0 mi North 4.6 mph - N/A   Clear
9:15 PM 34.7 °F - 29.8 °F 82% 30.19 in 10.0 mi Calm Calm - N/A   Clear
9:35 PM 34.7 °F - 29.8 °F 82% 30.19 in 10.0 mi Calm Calm - N/A   Scattered Clouds
9:55 PM 34.9 °F - 29.8 °F 82% 30.18 in 10.0 mi Calm Calm - N/A   Mostly Cloudy
10:15 PM 34.9 °F - 29.8 °F 82% 30.18 in 10.0 mi Calm Calm - N/A   Overcast
10:35 PM 34.9 °F 32.0 °F 30.0 °F 82% 30.18 in 10.0 mi SW 3.5 mph - N/A   Scattered Clouds
10:55 PM 34.9 °F 32.0 °F 30.0 °F 82% 30.18 in 10.0 mi WSW 3.5 mph - N/A   Mostly Cloudy
11:15 PM 34.9 °F 30.8 °F 29.8 °F 82% 30.17 in 10.0 mi SW 4.6 mph - N/A   Mostly Cloudy
11:35 PM 34.7 °F 28.8 °F 30.7 °F 85% 30.17 in 10.0 mi SW 6.9 mph - N/A   Scattered Clouds
11:55 PM 34.7 °F 29.6 °F 30.7 °F 85% 30.17 in 10.0 mi SW 5.8 mph - N/A   Scattered Clouds